User: anonymous   Login
Location: Unspecified
(0.0000°N, 0.0000°E)
Time: 04:35:35
(UTC+02:00)
Language:

Cosmos 1953 Rocket - Orbit

View from above orbital plane
View from above orbital plane
View from above satellite
View from above satellite

Ground track
Ground track

The orbit data is extracted from the following two-line orbital elements,

1 19211U 88050B   17085.96603913 +.00000118 +00000-0 +11508-4 0  9992
2 19211 082.5235 279.3147 0022676 031.9708 078.6784 14.82951882533521
Epoch (UTC): 26 March 2017 23:11:05
Eccentricity: 0.0022676
inclination: 82.5235°
perigee height: 604 km
apogee height: 636 km
right ascension of ascending node: 279.3147°
argument of perigee: 31.9708°
revolutions per day: 14.82951882
mean anomaly at epoch: 78.6784°
orbit number at epoch: 53352

The dashed part of the orbit path shows where the satellite is in the earth's shadow,  

DLR